When you browse on this site, cookies collect data to enhance your experience and personalize the content and advertising you see.
Visit our Privacy Policy to learn more. By continuing to use the site, you agree to this use of cookies and data.
EN

Hourly Weather Lubumbashi

Today, 10 July, Friday

Time Temperature Precipitation Wind Pressure Humidity
00:00 +27°C° 0.9 mm 5 mps 719 mmHg 74%
01:00 +26°C° 0.9 mm 4 mps 719 mmHg 75%
02:00 +26°C° 0 mm 4 mps 718 mmHg 76%
03:00 +27°C° 0.2 mm 4 mps 719 mmHg 73%
04:00 +27°C° 0.2 mm 4 mps 719 mmHg 70%
05:00 +27°C° 0.2 mm 4 mps 719 mmHg 67%
06:00 +27°C° 0.1 mm 3 mps 719 mmHg 67%
07:00 +27°C° 0.1 mm 2 mps 720 mmHg 66%
08:00 +28°C° 0 mm 2 mps 720 mmHg 66%
09:00 +29°C° 0 mm 2 mps 720 mmHg 60%
10:00 +31°C° 0 mm 2 mps 720 mmHg 55%
11:00 +32°C° 0 mm 2 mps 720 mmHg 49%
12:00 +34°C° 0 mm 2 mps 720 mmHg 46%
13:00 +34°C° 0 mm 2 mps 719 mmHg 43%
14:00 +35°C° 0 mm 2 mps 719 mmHg 40%
15:00 +35°C° 0 mm 3 mps 718 mmHg 42%
16:00 +35°C° 0 mm 4 mps 718 mmHg 43%
17:00 +34°C° 0 mm 5 mps 717 mmHg 45%
18:00 +34°C° 0 mm 4 mps 718 mmHg 45%
19:00 +33°C° 0 mm 3 mps 718 mmHg 46%
20:00 +33°C° 0 mm 3 mps 718 mmHg 47%
21:00 +32°C° 0 mm 2 mps 718 mmHg 48%
22:00 +32°C° 0 mm 2 mps 719 mmHg 49%
23:00 +31°C° 0 mm 1 mps 719 mmHg 50%

Tomorrow, 11 July, Saturday

Time Temperature Precipitation Wind Pressure Humidity
00:00 +31°C° 0 mm 1 mps 719 mmHg 52%
01:00 +31°C° 0 mm 1 mps 719 mmHg 53%
02:00 +30°C° 0 mm 2 mps 719 mmHg 54%
03:00 +30°C° 0.5 mm 2 mps 719 mmHg 57%
04:00 +29°C° 0.5 mm 2 mps 719 mmHg 61%
05:00 +28°C° 0.5 mm 2 mps 719 mmHg 64%
06:00 +29°C° 0.1 mm 3 mps 720 mmHg 63%
07:00 +29°C° 0.1 mm 3 mps 720 mmHg 63%
08:00 +30°C° 0.1 mm 3 mps 720 mmHg 62%
09:00 +31°C° 0 mm 3 mps 720 mmHg 56%
10:00 +34°C° 0 mm 3 mps 721 mmHg 50%
11:00 +35°C° 0 mm 4 mps 721 mmHg 45%
12:00 +36°C° 0 mm 3 mps 720 mmHg 41%
13:00 +37°C° 0 mm 3 mps 719 mmHg 38%
14:00 +38°C° 0 mm 2 mps 718 mmHg 34%
15:00 +38°C° 0 mm 2 mps 718 mmHg 33%
16:00 +38°C° 0 mm 2 mps 717 mmHg 32%
17:00 +38°C° 0 mm 2 mps 717 mmHg 31%
18:00 +38°C° 0 mm 2 mps 717 mmHg 32%
19:00 +37°C° 0 mm 3 mps 718 mmHg 34%
20:00 +37°C° 0 mm 3 mps 718 mmHg 35%
21:00 +36°C° 0 mm 3 mps 718 mmHg 38%
22:00 +36°C° 0 mm 3 mps 718 mmHg 41%
23:00 +35°C° 0 mm 4 mps 719 mmHg 43%

Day after tomorrow, 12 July, Sunday

Time Temperature Precipitation Wind Pressure Humidity
00:00 +34°C° 0 mm 5 mps 719 mmHg 47%
01:00 +33°C° 0 mm 5 mps 718 mmHg 50%
02:00 +32°C° 0 mm 6 mps 718 mmHg 53%
03:00 +32°C° 0 mm 6 mps 718 mmHg 57%
04:00 +30°C° 0 mm 7 mps 718 mmHg 61%
05:00 +29°C° 0 mm 7 mps 718 mmHg 64%
06:00 +29°C° 0 mm 7 mps 718 mmHg 65%
07:00 +29°C° 0 mm 7 mps 719 mmHg 66%
08:00 +29°C° 0 mm 7 mps 719 mmHg 67%
09:00 +30°C° 0 mm 7 mps 720 mmHg 62%
10:00 +33°C° 0 mm 6 mps 720 mmHg 56%
11:00 +34°C° 0 mm 6 mps 720 mmHg 51%
12:00 +35°C° 0 mm 6 mps 719 mmHg 47%
13:00 +36°C° 0 mm 5 mps 719 mmHg 43%
14:00 +37°C° 0 mm 5 mps 718 mmHg 39%
15:00 +37°C° 0 mm 5 mps 718 mmHg 40%
16:00 +38°C° 0 mm 6 mps 718 mmHg 41%
17:00 +38°C° 0 mm 6 mps 717 mmHg 41%
18:00 +34°C° 2.8 mm 7 mps 718 mmHg 51%
19:00 +30°C° 2.8 mm 7 mps 718 mmHg 60%
20:00 +27°C° 2.8 mm 8 mps 718 mmHg 70%
21:00 +28°C° 0.3 mm 6 mps 718 mmHg 67%
22:00 +28°C° 0.3 mm 5 mps 719 mmHg 65%
23:00 +28°C° 0.3 mm 4 mps 719 mmHg 62%

13 July, Monday

Time Temperature Precipitation Wind Pressure Humidity
00:00 +28°C° 0.7 mm 4 mps 719 mmHg 64%
01:00 +27°C° 0.7 mm 5 mps 718 mmHg 66%
02:00 +27°C° 0.7 mm 5 mps 718 mmHg 68%
03:00 +27°C° 0 mm 5 mps 718 mmHg 69%
04:00 +27°C° 0 mm 4 mps 718 mmHg 71%
05:00 +26°C° 0 mm 4 mps 718 mmHg 72%
06:00 +27°C° 0 mm 5 mps 718 mmHg 70%
07:00 +28°C° 0 mm 5 mps 719 mmHg 68%
08:00 +28°C° 0 mm 6 mps 719 mmHg 65%
09:00 +30°C° 0 mm 5 mps 719 mmHg 59%
10:00 +32°C° 0 mm 4 mps 719 mmHg 52%
11:00 +34°C° 0 mm 3 mps 719 mmHg 45%
12:00 +35°C° 0 mm 4 mps 719 mmHg 42%
13:00 +36°C° 0 mm 4 mps 718 mmHg 39%
14:00 +37°C° 0 mm 4 mps 718 mmHg 36%
15:00 +37°C° 0 mm 4 mps 717 mmHg 35%
16:00 +37°C° 0 mm 4 mps 717 mmHg 35%
17:00 +37°C° 0 mm 4 mps 716 mmHg 34%
18:00 +36°C° 0 mm 4 mps 716 mmHg 36%
19:00 +36°C° 0 mm 5 mps 717 mmHg 38%
20:00 +35°C° 0 mm 5 mps 717 mmHg 40%
21:00 +34°C° 0 mm 5 mps 717 mmHg 46%
22:00 +33°C° 0 mm 6 mps 717 mmHg 51%
23:00 +32°C° 0 mm 7 mps 718 mmHg 57%

14 July, Tuesday

Time Temperature Precipitation Wind Pressure Humidity
00:00 +30°C° 0 mm 7 mps 717 mmHg 60%
01:00 +30°C° 0 mm 7 mps 717 mmHg 62%
02:00 +29°C° 0 mm 6 mps 716 mmHg 65%
03:00 +29°C° 0 mm 6 mps 717 mmHg 66%
04:00 +29°C° 0 mm 6 mps 717 mmHg 67%
05:00 +28°C° 0 mm 7 mps 717 mmHg 68%
06:00 +29°C° 0 mm 6 mps 717 mmHg 68%
07:00 +29°C° 0 mm 6 mps 718 mmHg 67%
08:00 +29°C° 0 mm 6 mps 719 mmHg 67%
09:00 +32°C° 0 mm 6 mps 719 mmHg 61%
10:00 +33°C° 0 mm 6 mps 719 mmHg 55%
11:00 +35°C° 0 mm 5 mps 719 mmHg 49%
12:00 +36°C° 0 mm 5 mps 718 mmHg 44%
13:00 +37°C° 0 mm 5 mps 718 mmHg 40%
14:00 +39°C° 0 mm 5 mps 717 mmHg 35%
15:00 +38°C° 0 mm 4 mps 717 mmHg 34%
16:00 +38°C° 0 mm 4 mps 716 mmHg 33%
17:00 +38°C° 0 mm 3 mps 716 mmHg 32%
18:00 +38°C° 0 mm 4 mps 716 mmHg 34%
19:00 +37°C° 0 mm 5 mps 716 mmHg 36%
20:00 +36°C° 0 mm 6 mps 717 mmHg 38%
21:00 +35°C° 0 mm 6 mps 717 mmHg 42%
22:00 +35°C° 0 mm 6 mps 718 mmHg 46%
23:00 +34°C° 0 mm 7 mps 718 mmHg 50%

15 July, Wednesday

Time Temperature Precipitation Wind Pressure Humidity
00:00 +32°C° 0.2 mm 7 mps 718 mmHg 54%
01:00 +30°C° 0.2 mm 7 mps 718 mmHg 58%
02:00 +29°C° 0.2 mm 7 mps 717 mmHg 62%
03:00 +29°C° 0 mm 7 mps 718 mmHg 65%
04:00 +28°C° 0 mm 6 mps 718 mmHg 68%
05:00 +28°C° 0 mm 6 mps 718 mmHg 70%
06:00 +28°C° 0 mm 6 mps 719 mmHg 69%
07:00 +28°C° 0 mm 6 mps 719 mmHg 69%
08:00 +29°C° 0 mm 6 mps 720 mmHg 68%
09:00 +30°C° 0 mm 6 mps 720 mmHg 62%
10:00 +32°C° 0 mm 6 mps 720 mmHg 56%
11:00 +34°C° 0 mm 6 mps 721 mmHg 51%
12:00 +34°C° 0.3 mm 6 mps 720 mmHg 49%
13:00 +35°C° 0.3 mm 5 mps 720 mmHg 47%
14:00 +35°C° 0.3 mm 5 mps 719 mmHg 46%
15:00 +36°C° 0 mm 4 mps 719 mmHg 44%
16:00 +36°C° 0 mm 4 mps 718 mmHg 43%
17:00 +36°C° 0 mm 4 mps 718 mmHg 42%
18:00 +35°C° 0 mm 4 mps 719 mmHg 44%
19:00 +35°C° 0 mm 4 mps 719 mmHg 46%
20:00 +34°C° 0 mm 5 mps 719 mmHg 48%
21:00 +32°C° 1.6 mm 5 mps 719 mmHg 53%
22:00 +29°C° 1.6 mm 5 mps 720 mmHg 59%
23:00 +27°C° 1.6 mm 5 mps 720 mmHg 64%
Show more